Weather History for Cape Girardeau, MO

Change the Weather History Date:

Sunday, February 17, 2013

  Actual Average Record
Temperature  
Mean Temperature 35 °F 38 °F  
Max Temperature 48 °F 48 °F 70 °F (1986)
Min Temperature 22 °F 29 °F 9 °F (1967)
Degree Days  
Heating Degree Days 30 27  
Month to date heating degree days 438 488  
Since 1 July heating degree days 2937 3226  
Cooling Degree Days 0 0  
Month to date cooling degree days 0 0  
Year to date cooling degree days 0 0  
Moisture  
Dew Point 25 °F    
Average Humidity 67    
Maximum Humidity 88    
Minimum Humidity 46    
Precipitation  
Precipitation 0.00 in 0.12 in 1.25 in (2000)
Month to date precipitation 0.71 2.10  
Year to date precipitation 4.29 5.57  
Sea Level Pressure  
Sea Level Pressure 30.16 in    
Wind  
Wind Speed 7 mph (SSE)    
Max Wind Speed 17 mph    
Max Gust Speed 23 mph    
Visibility 10 miles    
Events      
T = Trace of Precipitation, MM = Missing Value Source: NWS Daily Summary

Daily Weather History Graph

Daily Weather History Graph

Search for Another Location

Airport:

Trip Planner

Search our weather history database for the weather conditions in past years. The results will help you decide how hot, cold, wet, or windy it might be!

Date:

Astronomy

Feb. 17, 2013 Rise Set
Actual Time 6:44 AM CST 5:40 PM CST
Civil Twilight 6:17 AM CST 6:07 PM CST
Nautical Twilight 5:47 AM CST 6:37 PM CST
Astronomical Twilight 5:17 AM CST 7:07 PM CST
Moon 10:48 AM CST (2/17) 12:25 AM CST (2/17)
Length of Visible Light 11h 49m
Length of Day
10h 55m
Waxing Crescent, 49% of the Moon is Illuminated
Feb 17
Waxing Crescent
Feb 17
First Quarter
Feb 25
Full
Mar 4
Last Quarter
Mar 11
New

Hourly Weather History & Observations

Time (CST) Temp. Windchill Dew Point Humidity Pressure Visibility Wind Dir Wind Speed Gust Speed Precip Events Conditions
12:53 AM 23.0 °F - 19.0 °F 85% 30.22 in 10.0 mi Calm Calm - N/A   Clear
1:53 AM 23.0 °F - 19.0 °F 85% 30.21 in 10.0 mi Calm Calm - N/A   Overcast
2:53 AM 24.1 °F - 19.0 °F 81% 30.21 in 10.0 mi Calm Calm - N/A   Overcast
3:53 AM 25.0 °F - 19.9 °F 81% 30.20 in 10.0 mi Calm Calm - N/A   Overcast
4:53 AM 26.1 °F - 21.0 °F 81% 30.21 in 10.0 mi Calm Calm - N/A   Overcast
5:53 AM 26.1 °F 20.5 °F 19.9 °F 78% 30.22 in 10.0 mi East 4.6 mph - N/A   Overcast
6:53 AM 27.0 °F - 21.9 °F 81% 30.23 in 10.0 mi Calm Calm - N/A   Overcast
7:53 AM 28.9 °F 25.2 °F 24.1 °F 82% 30.24 in 10.0 mi SE 3.5 mph - N/A   Overcast
8:53 AM 32.0 °F 25.6 °F 24.1 °F 73% 30.24 in 10.0 mi SSE 6.9 mph - N/A   Overcast
9:53 AM 36.0 °F 30.3 °F 28.0 °F 73% 30.24 in 10.0 mi SSE 6.9 mph - N/A   Overcast
10:53 AM 39.9 °F 35.1 °F 27.0 °F 60% 30.23 in 10.0 mi South 6.9 mph - N/A   Overcast
11:53 AM 43.0 °F 37.2 °F 26.1 °F 51% 30.20 in 10.0 mi South 10.4 mph - N/A   Overcast
12:53 PM 45.0 °F 38.5 °F 28.0 °F 52% 30.17 in 10.0 mi South 13.8 mph 18.4 mph N/A   Partly Cloudy
1:53 PM 46.9 °F - 30.0 °F 52% 30.14 in 10.0 mi South 13.8 mph - N/A   Clear
2:53 PM 48.0 °F - 30.0 °F 50% 30.12 in 10.0 mi South 10.4 mph - N/A   Clear
3:53 PM 48.0 °F - 28.9 °F 48% 30.09 in 10.0 mi South 12.7 mph 20.7 mph N/A   Clear
5:53 PM 44.1 °F 39.0 °F 27.0 °F 51% 30.08 in 10.0 mi SSE 9.2 mph - N/A   Clear
6:53 PM 41.0 °F 35.8 °F 28.0 °F 60% 30.08 in 10.0 mi SSE 8.1 mph - N/A   Clear
7:53 PM 39.9 °F 34.5 °F 28.0 °F 63% 30.08 in 10.0 mi SSE 8.1 mph - N/A   Clear
8:53 PM 39.9 °F 33.4 °F 27.0 °F 60% 30.07 in 10.0 mi SSE 10.4 mph - N/A   Clear
9:53 PM 39.9 °F 32.9 °F 26.1 °F 58% 30.06 in 10.0 mi SSE 11.5 mph - N/A   Clear
11:53 PM 37.9 °F 32.1 °F 26.1 °F 62% 30.02 in 10.0 mi SSE 8.1 mph - N/A   Clear